Regional Weather Roundup
Issued by NWS Sioux Falls, SD

Home | Current Version | Previous Version | Text Only | Print | Product List | Glossary On
Versions: 1 2 3 4 5 6 7 8 9 10 11 12 13 14 15 16 17 18 19 20 21 22 23 24 25 26 27 28 29 30 31 32 33 34 35 36 37 38 39 40 41 42 43 44 45 46 47 48 49 50
000
ASUS43 KFSD 020410
RWRFSD

WEATHER ROUNDUP FOR SE SOUTH DAKOTA/SW MINNESOTA/NW IOWA
NATIONAL WEATHER SERVICE SIOUX FALLS SD
1100 PM CDT WED OCT 01 2014

NOTE: "FAIR" INDICATES FEW OR NO CLOUDS BELOW 12,000 FEET WITH NO
SIGNIFICANT WEATHER AND OR OBSTRUCTIONS TO VISIBILITY.


SDZ038>040-050-052>070-020500-
SOUTHEAST SOUTH DAKOTA

CITY           SKY/WX    TMP DP  RH WIND       PRES   REMARKS
CHAMBERLAIN    MOCLDY    56  47  74 NW7       29.90R
HURON          PTCLDY    49  46  90 W6        29.86R
MADISON        FAIR      54  54 100 N7        29.85S
MITCHELL       CLEAR     57  48  72 NW8       29.87R
SIOUX FALLS    PTCLDY    54  51  90 NW5       29.82R
WINNER         MOCLDY    56  48  74 NW7       29.92R
YANKTON        CLEAR     55  50  82 NW12      29.83R
$$

MNZ071-072-080-081-089-090-097-098-020500-
SOUTHWEST MINNESOTA

CITY           SKY/WX    TMP DP  RH WIND       PRES   REMARKS
FAIRMONT       CLOUDY    61  55  82 E7        29.82S
JACKSON        MOCLDY    55  54  94 CALM      29.82S
LUVERNE        CLEAR     55  52  88 CALM      29.82S
MARSHALL       CLEAR     57  48  72 N13       29.82S
MONTEVIDEO     CLEAR     57  54  88 N5        29.84R
PIPESTONE      CLEAR     57  50  77 NE7       29.84R
REDWOOD FALLS  PTCLDY    55  54  96 NW3       29.82R
TRACY          PTCLDY    58  56  94 NW6       29.83R
WINDOM         MOCLDY    57  55  94 NE5       29.82S
WORTHINGTON    MOCLDY    55  54  94 CALM      29.83S
$$

IAZ001>003-012>014-020>022-031-032-NEZ013-014-SDZ071-020500-
NORTHWEST IOWA

CITY           SKY/WX    TMP DP  RH WIND       PRES   REMARKS
CHEROKEE       MOCLDY    62  62 100 CALM      29.81S
DENISON        PTCLDY    63  63 100 CALM      29.78F
ESTHERVILLE    CLOUDY    60  57  89 SE10      29.82R THUNDER
LE MARS        MOCLDY    59  57  94 CALM      29.81S
ORANGE CITY    PTCLDY    64  52  63 N6        29.82R
SHELDON        PTCLDY    54  54 100 CALM      29.81R
SIOUX CITY     MOCLDY    60  58  92 NW3       29.80S
SPENCER        MOCLDY    62  59  90 E5        29.81S
STORM LAKE     PTCLDY    61  59  94 S6        29.82S
$$

ABBREVIATIONS USED IN REMARKS
   TC - TEMPERATURE IN CELSIUS
  WCI - WIND CHILL INDEX
   HX - HEAT INDEX
  VSB - VISIBILITY



USA.gov is the U.S. government's official web portal to all federal, state and local government web resources and services.